Weather History for KHCD - December, 2012

Change the Weather History Date:

Friday, December 14, 2012

  Actual Average Record
Temperature  
Mean Temperature 23 °F -  
Max Temperature 37 °F 26 °F 55 °F (1998)
Min Temperature 9 °F 10 °F -18 °F (2000)
Degree Days  
Heating Degree Days 42    
Moisture  
Dew Point 22 °F    
Average Humidity 91    
Maximum Humidity 100    
Minimum Humidity 80    
Precipitation  
Precipitation 0.00 in - - ()
Sea Level Pressure  
Sea Level Pressure 29.94 in    
Wind  
Wind Speed 4 mph (East)    
Max Wind Speed 15 mph    
Max Gust Speed 17 mph    
Visibility 6 miles    
Events Fog    
Averages and records for this station are not official NWS values.
T = Trace of Precipitation, MM = Missing Value Source: NWS Daily Summary

Daily Weather History Graph

Daily Weather History Graph

Search for Another Location

Airport or City:

Trip Planner

Search our weather history database for the weather conditions in past years. The results will help you decide how hot, cold, wet, or windy it might be!

Date:

Astronomy

Dec. 14, 2012 Rise Set
Actual Time 7:48 AM CST 4:36 PM CST
Civil Twilight 7:14 AM CST 5:10 PM CST
Nautical Twilight 6:37 AM CST 5:47 PM CST
Astronomical Twilight 6:01 AM CST 6:23 PM CST
Moon 8:51 AM CST (12/14) 6:33 PM CST (12/14)
Length of Visible Light 9h 56m
Length of Day
8h 48m
Waxing Crescent, 3% of the Moon is Illuminated
Dec 14
Waxing Crescent
Dec 19
First Quarter
Dec 28
Full
Jan 4
Last Quarter
Jan 11
New

Hourly Weather History & Observations

Time (CST) Temp. Windchill Dew Point Humidity Pressure Visibility Wind Dir Wind Speed Gust Speed Precip Events Conditions
12:09 AM 11.7 °F - 10.2 °F 94% 30.11 in 5.0 mi Calm Calm - N/A   Clear
12:29 AM 13.5 °F - 12.4 °F 95% 30.10 in 4.0 mi Calm Calm - N/A   Clear
12:49 AM 13.6 °F - 12.4 °F 95% 30.10 in 3.0 mi Calm Calm - N/A   Clear
1:09 AM 13.1 °F - 11.8 °F 95% 30.10 in 3.0 mi Calm Calm - N/A   Clear
1:29 AM 9.7 °F - 8.1 °F 93% 30.10 in 5.0 mi Calm Calm - N/A   Clear
1:48 AM 9.7 °F - 8.2 °F 94% 30.10 in 5.0 mi Calm Calm - N/A   Clear
2:09 AM 14.0 °F - 13.1 °F 96% 30.10 in 2.5 mi Calm Calm - N/A   Clear
2:29 AM 12.9 °F 5.2 °F 11.7 °F 95% 30.10 in 1.8 mi ENE 4.6 mph - N/A   Mist
2:48 AM 14.0 °F 6.5 °F 13.1 °F 96% 30.10 in 4.0 mi East 4.6 mph - N/A   Clear
3:09 AM 13.3 °F 5.6 °F 12.2 °F 95% 30.09 in 4.0 mi East 4.6 mph - N/A   Clear
3:29 AM 14.0 °F 6.5 °F 13.1 °F 96% 30.09 in 3.0 mi East 4.6 mph - N/A   Clear
3:49 AM 16.7 °F 9.6 °F 15.8 °F 96% 30.08 in 4.0 mi East 4.6 mph - N/A   Clear
4:09 AM 17.1 °F 11.7 °F 16.2 °F 96% 30.08 in 4.0 mi East 3.5 mph - N/A   Clear
4:28 AM 13.1 °F - 11.7 °F 94% 30.08 in 4.0 mi Calm Calm - N/A   Clear
4:48 AM 14.0 °F 8.2 °F 13.1 °F 96% 30.07 in 3.0 mi East 3.5 mph - N/A   Clear
5:08 AM 11.7 °F - 10.2 °F 94% 30.07 in 3.0 mi Calm Calm - N/A   Clear
5:29 AM 11.7 °F 3.7 °F 10.2 °F 94% 30.05 in 0.5 mi ESE 4.6 mph - N/A Fog Light Freezing Fog
5:48 AM 13.3 °F 5.6 °F 12.0 °F 95% 30.04 in 0.2 mi ESE 4.6 mph - N/A Fog Light Freezing Fog
6:09 AM 14.0 °F 5.1 °F 13.1 °F 96% 30.03 in 0.2 mi ESE 5.8 mph - N/A Fog Light Freezing Fog
6:28 AM 14.0 °F 8.2 °F 12.9 °F 95% 30.04 in 0.8 mi SSE 3.5 mph - N/A   Overcast
6:48 AM 14.0 °F 8.2 °F 13.1 °F 96% 30.04 in 0.5 mi SE 3.5 mph - N/A Fog Light Freezing Fog
7:09 AM 14.0 °F 8.2 °F 12.9 °F 95% 30.03 in 0.2 mi ESE 3.5 mph - N/A Fog Light Freezing Fog
7:28 AM 14.0 °F - 13.1 °F 96% 30.03 in 0.2 mi Calm Calm - N/A Fog Light Freezing Fog
7:49 AM 14.0 °F - 12.9 °F 95% 30.03 in 0.2 mi Calm Calm - N/A Fog Light Freezing Fog
8:09 AM 14.0 °F - 12.9 °F 95% 30.03 in 0.2 mi Calm Calm - N/A Fog Light Freezing Fog
8:29 AM 14.0 °F - 13.1 °F 96% 30.03 in 0.2 mi Calm Calm - N/A Fog Light Freezing Fog
8:48 AM 14.0 °F - 13.1 °F 96% 30.03 in 0.8 mi Calm Calm - N/A   Mostly Cloudy
9:09 AM 16.5 °F - 15.4 °F 96% 30.03 in 1.8 mi Calm Calm - N/A   Mist
9:28 AM 19.2 °F - 18.5 °F 97% 30.03 in 3.0 mi Calm Calm - N/A   Clear
9:48 AM 19.2 °F 12.5 °F 18.5 °F 97% 30.02 in 4.0 mi East 4.6 mph - N/A   Clear
10:09 AM 20.1 °F 13.6 °F 19.8 °F 99% 30.01 in 4.0 mi East 4.6 mph - N/A   Clear
10:29 AM 22.1 °F 17.4 °F 21.7 °F 99% 30.01 in 4.0 mi East 3.5 mph - N/A   Clear
10:49 AM 23.2 °F 17.2 °F 23.0 °F 99% 30.00 in 5.0 mi East 4.6 mph - N/A   Clear
11:09 AM 25.2 °F 18.3 °F 25.0 °F 99% 29.98 in 5.0 mi East 5.8 mph - N/A   Clear
11:29 AM 26.6 °F 21.2 °F 26.6 °F 100% 29.98 in 5.0 mi East 4.6 mph - N/A   Clear
11:49 AM 29.1 °F 22.1 °F 29.1 °F 100% 29.97 in 7.0 mi East 6.9 mph - N/A   Clear
12:08 PM 29.3 °F 22.3 °F 29.3 °F 100% 29.96 in 7.0 mi East 6.9 mph - N/A   Clear
12:28 PM 27.5 °F 19.3 °F 27.5 °F 100% 29.95 in 7.0 mi East 8.1 mph - N/A   Clear
12:49 PM 29.3 °F 20.8 °F 29.3 °F 100% 29.94 in 7.0 mi East 9.2 mph - N/A   Clear
1:09 PM 29.3 °F 20.8 °F 29.1 °F 99% 29.92 in 7.0 mi East 9.2 mph - N/A   Clear
1:29 PM 30.2 °F 21.9 °F 27.5 °F 90% 29.91 in 7.0 mi East 9.2 mph - N/A   Clear
1:48 PM 31.8 °F 25.4 °F 27.1 °F 83% 29.90 in 10.0 mi ENE 6.9 mph - N/A   Clear
2:08 PM 34.0 °F 26.6 °F 28.6 °F 81% 29.89 in 10.0 mi ENE 9.2 mph - N/A   Clear
2:28 PM 34.0 °F 26.0 °F 28.4 °F 80% 29.87 in 10.0 mi ENE 10.4 mph - N/A   Clear
2:49 PM 34.0 °F 26.0 °F 28.8 °F 81% 29.87 in 10.0 mi ENE 10.4 mph - N/A   Clear
3:09 PM 34.0 °F 25.5 °F 28.4 °F 80% 29.86 in 10.0 mi ENE 11.5 mph 17.3 mph N/A   Clear
3:29 PM 34.0 °F 25.5 °F 28.4 °F 80% 29.86 in 10.0 mi ENE 11.5 mph - N/A   Clear
4:08 PM 34.0 °F 26.0 °F 28.8 °F 81% 29.85 in 10.0 mi East 10.4 mph - N/A   Clear
4:28 PM 34.0 °F 26.0 °F 28.9 °F 82% 29.84 in 10.0 mi ENE 10.4 mph - N/A   Clear
4:49 PM 34.0 °F 25.5 °F 28.8 °F 81% 29.84 in 10.0 mi East 11.5 mph 17.3 mph N/A   Clear
5:09 PM 34.0 °F 25.0 °F 28.9 °F 82% 29.83 in 10.0 mi ENE 12.7 mph 17.3 mph N/A   Clear
5:28 PM 34.0 °F 25.5 °F 29.1 °F 82% 29.83 in 10.0 mi East 11.5 mph - N/A   Clear
5:48 PM 34.0 °F 25.5 °F 29.3 °F 83% 29.83 in 10.0 mi East 11.5 mph - N/A   Clear
6:09 PM 34.0 °F 25.5 °F 29.3 °F 83% 29.83 in 10.0 mi East 11.5 mph - N/A   Clear
6:28 PM 34.0 °F 25.5 °F 29.3 °F 83% 29.83 in 10.0 mi East 11.5 mph - N/A   Clear
6:48 PM 34.0 °F 25.0 °F 29.5 °F 84% 29.82 in 10.0 mi East 12.7 mph - N/A   Clear
7:09 PM 34.0 °F 24.2 °F 30.0 °F 85% 29.81 in 10.0 mi East 15.0 mph - N/A   Clear
7:28 PM 34.0 °F 25.0 °F 29.8 °F 85% 29.81 in 10.0 mi East 12.7 mph - N/A   Clear
7:49 PM 34.0 °F 25.0 °F 29.8 °F 85% 29.80 in 10.0 mi East 12.7 mph - N/A   Clear
8:09 PM 34.0 °F 25.5 °F 30.2 °F 86% 29.80 in 10.0 mi East 11.5 mph - N/A   Clear
8:29 PM 34.7 °F 26.4 °F 30.9 °F 86% 29.79 in 10.0 mi East 11.5 mph - N/A   Clear
8:48 PM 35.2 °F 27.1 °F 31.5 °F 86% 29.78 in 10.0 mi East 11.5 mph - N/A   Clear
9:07 PM 36.3 °F 28.0 °F 32.2 °F 85% 29.78 in 10.0 mi East 12.7 mph - N/A   Clear
9:29 PM 36.5 °F 28.7 °F 32.2 °F 84% 29.77 in 10.0 mi East 11.5 mph - N/A   Clear
9:49 PM 36.5 °F 29.2 °F 32.4 °F 85% 29.77 in 10.0 mi East 10.4 mph - N/A   Scattered Clouds
10:09 PM 36.5 °F 28.7 °F 32.4 °F 85% 29.77 in 10.0 mi East 11.5 mph - N/A   Mostly Cloudy
10:28 PM 36.5 °F 30.3 °F 32.2 °F 84% 29.76 in 10.0 mi East 8.1 mph - N/A   Overcast
10:49 PM 36.5 °F 30.3 °F 32.4 °F 85% 29.75 in 10.0 mi East 8.1 mph - N/A   Overcast
11:08 PM 36.5 °F 29.7 °F 32.9 °F 87% 29.74 in 10.0 mi East 9.2 mph - N/A   Overcast
11:28 PM 37.0 °F 31.0 °F 32.9 °F 85% 29.74 in 10.0 mi East 8.1 mph - N/A   Overcast
11:49 PM 36.7 °F 29.9 °F 32.9 °F 86% 29.72 in 10.0 mi East 9.2 mph - N/A   Overcast